Wind_Speed
45 44 44 43 47 46 44 42 36 32 30 32 35 35 39 42 43 45 49 51 52 49 49 46 41 39 38 37 38 40 38 36 37 35 36 38 39 39 38 38 39 39 39
46 52 52 49 47 49 49 45 39 36 35 34 35 38 39 39 41 45 47 50 52 53 53 51 48 44 39 38 38 39 39 38 38 36 36 37 39 40 40 40 41 41 40
44 45 50 52 51 50 48 44 40 40 42 43 41 39 39 43 44 46 49 52 53 54 56 55 53 50 43 40 39 40 41 39 38 38 38 38 39 41 42 44 42 43 42
36 39 40 43 48 47 45 47 50 49 45 42 44 44 44 40 43 48 51 55 57 58 61 61 59 56 52 47 45 43 46 44 40 40 39 39 39 40 43 44 44 45 44
43 43 43 46 48 51 49 48 45 46 48 53 50 47 51 49 48 46 52 51 56 61 61 63 63 62 58 56 53 52 52 51 48 44 43 42 41 42 42 43 45 45 45
55 53 54 54 50 50 53 53 52 50 54 56 56 55 51 50 50 57 60 65 65 65 66 66 65 65 63 61 58 58 58 57 56 53 49 48 45 45 45 46 45 44 44
54 53 53 51 53 58 56 54 52 51 49 48 53 57 59 57 54 54 56 58 64 68 70 69 68 67 65 64 64 63 63 63 63 61 58 55 52 49 50 49 47 45 44
55 56 56 56 55 52 54 56 58 58 56 54 52 51 55 54 52 54 53 59 64 61 62 61 63 65 65 66 68 67 70 68 69 69 63 60 57 55 55 52 50 50 46
58 60 62 61 61 58 55 54 56 57 56 57 58 56 55 55 54 56 56 55 64 68 67 65 67 64 61 62 68 70 69 70 70 70 66 62 60 61 61 55 51 51 48
62 63 64 64 64 64 62 59 56 57 59 59 59 57 56 56 55 56 57 55 55 60 68 72 72 76 78 76 74 72 73 73 72 70 66 64 64 67 63 57 52 52 49
68 69 70 72 74 74 73 71 68 65 62 61 63 62 61 59 56 53 53 58 56 53 62 68 71 75 81 78 77 73 70 70 70 65 63 64 67 66 65 52 50 51 49
74 78 79 80 80 81 80 77 75 73 72 68 64 64 63 62 61 57 52 52 56 57 56 61 67 68 75 75 74 69 68 69 65 67 68 70 70 70 59 50 52 52 49
80 81 83 86 87 88 87 85 84 79 76 70 67 65 64 62 63 61 54 49 48 52 55 55 61 64 69 75 71 72 63 70 70 73 73 73 68 65 52 54 57 55 49
85 84 86 88 88 86 85 83 81 77 73 70 67 63 63 61 62 61 56 51 44 42 52 53 60 59 62 67 71 71 69 69 71 70 71 69 68 59 57 58 52 52 49
89 93 89 84 81 81 80 80 79 75 69 64 61 61 61 60 58 57 56 52 51 43 47 45 50 56 57 59 62 69 70 68 67 64 68 69 62 58 56 52 52 52 45
77 69 65 62 61 62 64 66 64 66 65 62 57 56 58 59 55 52 51 52 53 46 50 45 42 47 45 51 56 61 66 68 65 64 63 57 57 51 53 53 50 49 46
60 57 53 50 48 47 46 47 50 48 51 54 54 52 52 54 53 48 47 46 46 48 51 48 40 39 39 45 50 52 54 55 58 56 54 55 53 50 54 50 50 46 44
49 46 44 41 38 35 34 34 34 36 35 36 43 48 47 50 51 46 44 43 44 48 47 47 43 39 36 39 40 41 44 46 47 49 52 54 53 50 50 49 49 48 45
39 35 33 32 29 29 28 26 24 23 22 23 28 36 39 45 45 42 40 41 39 41 47 38 42 40 37 35 35 33 35 39 42 44 45 44 45 48 49 46 45 41 40
30 27 27 28 27 25 24 22 18 15 11 10 15 23 28 34 37 35 36 34 35 35 41 37 38 41 34 29 28 29 30 34 36 38 38 40 44 44 45 42 40 43 38
29 25 24 24 24 23 21 18 15 11 6 5 10 17 22 26 27 28 29 29 29 32 35 31 33 34 27 24 27 30 32 32 33 34 37 38 39 42 42 41 41 36 34
29 27 26 26 24 22 19 15 13 10 7 6 9 13 18 21 24 25 25 26 27 28 30 32 30 22 20 22 24 28 30 31 34 34 35 36 39 40 38 36 34 30 30
37 29 26 25 24 21 18 15 12 10 7 6 7 10 14 17 19 20 22 24 23 23 26 33 26 16 18 23 26 30 29 29 30 32 33 35 37 35 34 31 27 27 30
45 42 33 27 23 20 17 15 13 10 9 8 7 8 10 12 13 15 18 19 19 18 17 20 19 19 23 25 27 31 30 30 30 30 32 32 32 31 27 24 25 27 30
39 40 42 40 32 24 18 15 13 11 9 7 6 7 8 10 11 11 13 16 18 18 18 19 20 21 21 22 25 25 23 23 26 28 28 27 24 20 20 22 26 28 31
35 35 36 37 37 37 30 22 17 13 10 6 3 2 4 9 9 7 10 13 15 16 13 13 15 17 19 19 19 19 21 23 24 24 22 19 18 20 22 25 27 29 32
Wind_Direction
291 286 284 284 287 287 287 295 288 279 275 267 258 252 249 247 247 246 246 243 239 236 236 237 238 244 246 249 253 253 253 255 258 259 261 260 259 257 256 256 257 259 261
287 286 287 288 284 283 288 287 283 278 274 270 269 264 258 251 246 244 242 244 243 237 235 235 236 238 241 245 251 255 254 254 257 258 258 259 260 259 256 255 256 260 262
285 279 280 283 288 284 284 282 278 280 279 270 269 269 265 260 254 246 244 243 241 241 242 241 239 237 236 240 245 255 255 251 254 259 260 259 260 262 264 262 262 262 262
293 294 293 289 291 288 281 278 280 281 276 275 269 266 268 266 261 256 251 248 244 241 241 242 243 242 238 236 240 245 251 250 250 252 256 258 260 262 264 267 267 267 266
294 292 289 286 287 289 287 286 282 279 277 270 268 260 257 258 260 263 259 255 256 253 249 245 242 243 243 242 240 242 245 248 248 248 252 254 257 262 266 266 267 268 267
301 297 293 292 291 291 288 288 287 283 277 272 265 258 258 259 258 252 254 254 250 252 255 248 247 246 245 246 246 246 246 246 248 248 248 251 254 259 262 264 264 264 263
306 305 303 299 292 288 285 280 282 283 281 277 276 272 261 258 269 261 256 257 256 252 252 251 246 246 245 245 245 246 249 250 250 249 248 249 251 256 258 262 263 263 262
306 305 304 301 299 295 288 285 281 279 276 275 274 275 275 269 266 266 263 252 253 254 249 251 252 250 249 248 246 243 247 249 251 252 249 249 251 254 255 258 261 262 261
304 302 301 300 299 297 293 287 283 279 273 268 267 268 270 268 266 265 263 258 252 247 249 248 252 256 257 255 248 246 245 244 247 248 247 247 249 252 255 256 257 260 261
301 300 299 299 297 296 294 291 285 280 278 271 266 262 260 262 263 264 266 263 257 255 251 248 249 252 253 251 248 243 243 245 245 246 246 246 248 252 254 253 252 257 260
299 298 297 295 294 292 290 288 287 284 279 273 269 264 260 258 259 260 264 266 265 262 256 249 249 252 252 248 250 244 242 243 245 245 244 245 246 250 252 250 252 257 261
297 297 296 295 293 291 289 287 285 283 281 277 274 268 260 256 254 257 255 260 265 268 262 258 252 251 249 247 246 243 239 239 238 239 239 240 244 246 250 245 251 254 258
297 295 292 290 289 288 286 285 283 282 280 277 273 270 266 258 255 253 252 249 257 263 266 263 258 252 250 248 242 242 236 237 235 236 238 240 242 246 242 241 244 250 255
297 295 293 291 288 286 284 283 281 280 277 275 271 266 263 260 257 256 251 247 244 252 259 257 254 253 250 249 247 241 236 237 239 237 238 238 241 241 236 241 246 249 254
299 297 295 291 288 285 281 278 275 273 272 270 266 261 258 255 254 256 255 248 244 247 250 250 248 247 246 247 249 246 242 238 234 231 232 238 240 236 241 243 242 251 248
304 302 299 296 292 287 284 279 273 270 266 263 262 257 251 252 249 251 252 249 250 252 248 249 252 248 246 247 249 250 247 244 239 235 236 237 236 233 238 237 243 257 254
310 309 308 305 303 300 295 289 281 271 264 259 255 253 249 245 245 246 246 247 248 251 251 245 244 247 242 244 245 250 252 250 247 242 238 237 233 232 233 244 249 246 248
314 314 313 313 314 313 309 300 291 284 270 252 249 243 241 236 240 239 242 242 243 246 254 248 241 241 239 242 242 242 247 248 243 240 239 236 236 236 239 241 242 251 248
321 322 321 324 326 325 322 319 312 297 283 261 238 235 235 233 236 236 239 240 241 244 250 257 247 242 238 241 243 244 245 246 242 240 238 235 235 232 233 237 248 246 244
328 331 332 334 338 337 335 333 329 318 304 268 231 219 221 229 235 236 238 238 241 244 247 258 250 241 242 240 239 235 231 236 236 234 230 228 229 230 236 240 238 238 242
340 339 338 340 339 339 339 340 341 337 316 248 218 219 221 228 232 234 235 234 235 239 244 250 254 245 249 241 233 229 225 224 225 224 225 227 228 232 235 234 235 238 247
353 350 348 344 342 341 340 341 337 331 315 269 235 226 228 229 230 230 231 228 227 234 243 239 248 249 237 230 225 217 214 214 217 219 223 227 230 233 232 232 235 243 255
13 4 357 351 346 343 341 339 335 326 308 283 258 241 235 233 228 228 224 221 220 228 235 237 239 231 231 218 211 205 205 208 216 221 224 227 228 228 229 233 242 253 262
20 21 15 6 359 355 352 347 343 336 316 290 254 234 234 235 230 223 218 220 222 222 220 217 220 217 226 214 207 200 201 206 213 217 220 222 225 226 229 240 252 261 268
18 19 23 24 19 14 10 6 4 359 344 319 288 261 234 213 192 202 205 204 203 198 194 195 208 222 221 205 201 203 205 208 212 215 218 221 224 231 245 255 262 268 275
15 18 22 23 24 27 28 28 27 23 18 8 331 243 188 170 171 176 184 183 177 171 174 194 211 205 199 197 191 194 202 207 210 215 218 222 233 245 254 263 271 277 281
Height
3011 3014 3010 3008 3007 3005 3004 3004 3004 3001 2999 2998 2997 2994 2991 2992 2995 2997 3001 3005 3005 3010 3013 3017 3021 3024 3026 3028 3030 3030 3031 3031 3030 3032 3032 3032 3032 3032 3033 3033 3033 3033 3032
3001 3000 2996 2996 2996 2994 2992 2993 2993 2992 2990 2989 2989 2987 2985 2983 2982 2985 2987 2992 2996 2996 2999 3003 3007 3011 3013 3017 3020 3022 3022 3022 3022 3023 3023 3024 3024 3023 3024 3023 3024 3024 3024
2988 2990 2986 2982 2982 2980 2980 2980 2978 2979 2981 2979 2977 2976 2975 2975 2974 2973 2974 2977 2980 2985 2988 2992 2995 2998 3000 3004 3008 3012 3013 3012 3012 3014 3014 3015 3015 3016 3017 3016 3016 3016 3015
2980 2977 2973 2972 2970 2969 2967 2966 2964 2963 2965 2967 2966 2963 2961 2962 2963 2964 2964 2965 2966 2968 2971 2975 2980 2985 2988 2990 2995 3000 3003 3002 3002 3002 3003 3005 3006 3006 3007 3007 3006 3006 3006
2967 2965 2963 2961 2958 2955 2951 2951 2951 2950 2948 2948 2950 2950 2949 2948 2949 2950 2951 2950 2952 2955 2958 2959 2963 2969 2975 2977 2980 2984 2987 2989 2990 2991 2993 2994 2995 2995 2996 2997 2995 2996 2997
2950 2950 2948 2946 2944 2942 2940 2936 2935 2934 2932 2931 2932 2931 2931 2932 2934 2932 2934 2934 2933 2938 2941 2944 2947 2952 2957 2961 2966 2968 2973 2974 2977 2978 2980 2982 2984 2985 2985 2986 2985 2985 2986
2934 2932 2930 2928 2928 2926 2924 2922 2921 2919 2917 2915 2913 2911 2912 2914 2915 2914 2914 2914 2915 2917 2922 2924 2928 2932 2939 2943 2948 2952 2956 2959 2962 2965 2964 2968 2969 2972 2972 2972 2973 2973 2974
2922 2917 2914 2912 2910 2907 2905 2903 2902 2901 2900 2899 2899 2897 2894 2896 2896 2896 2894 2894 2899 2901 2904 2909 2912 2916 2921 2926 2929 2931 2937 2941 2944 2948 2949 2952 2954 2955 2956 2957 2959 2958 2959
2909 2904 2899 2895 2891 2889 2888 2885 2882 2879 2880 2880 2880 2879 2877 2878 2877 2879 2877 2875 2878 2883 2888 2890 2895 2900 2904 2907 2909 2914 2918 2922 2925 2928 2931 2935 2937 2936 2938 2939 2942 2944 2943
2892 2887 2882 2877 2874 2870 2867 2865 2864 2862 2857 2855 2854 2856 2856 2859 2858 2859 2856 2854 2857 2865 2867 2871 2873 2877 2879 2885 2886 2890 2896 2903 2906 2910 2915 2919 2920 2920 2921 2924 2925 2927 2928
2873 2869 2865 2858 2852 2849 2843 2843 2841 2839 2837 2835 2833 2834 2834 2836 2837 2837 2836 2836 2842 2843 2846 2851 2854 2857 2858 2863 2866 2870 2877 2884 2889 2895 2898 2902 2902 2903 2903 2909 2911 2913 2914
2856 2848 2842 2835 2829 2822 2817 2815 2814 2813 2811 2810 2810 2809 2811 2813 2815 2818 2818 2820 2823 2825 2827 2831 2834 2838 2839 2842 2845 2852 2857 2859 2869 2873 2876 2878 2882 2884 2889 2894 2898 2898 2901
2835 2827 2818 2809 2802 2795 2789 2786 2783 2785 2784 2784 2785 2785 2788 2792 2794 2797 2800 2803 2805 2806 2810 2813 2816 2818 2820 2823 2825 2829 2834 2838 2846 2849 2853 2857 2864 2870 2875 2879 2881 2883 2888
2808 2798 2788 2778 2771 2766 2760 2755 2752 2753 2755 2756 2758 2761 2765 2768 2774 2778 2781 2784 2787 2789 2792 2796 2800 2799 2801 2805 2808 2808 2813 2819 2827 2831 2836 2842 2847 2855 2859 2863 2868 2872 2876
2780 2769 2756 2744 2736 2730 2726 2724 2721 2724 2726 2728 2732 2736 2740 2745 2754 2757 2762 2768 2770 2773 2774 2776 2778 2781 2782 2784 2789 2792 2798 2803 2806 2811 2815 2822 2832 2840 2847 2851 2855 2859 2861
2747 2736 2726 2716 2708 2701 2695 2692 2694 2694 2698 2702 2707 2711 2718 2723 2733 2738 2744 2751 2754 2756 2755 2757 2760 2764 2767 2770 2774 2777 2781 2787 2790 2795 2804 2814 2820 2827 2837 2840 2844 2849 2852
2727 2716 2707 2698 2690 2683 2677 2671 2667 2671 2673 2678 2684 2690 2696 2705 2713 2720 2726 2731 2737 2739 2737 2742 2746 2752 2754 2757 2759 2763 2769 2776 2783 2788 2796 2803 2809 2814 2823 2830 2834 2835 2837
2717 2707 2695 2687 2679 2672 2666 2660 2655 2651 2654 2660 2663 2671 2678 2686 2694 2703 2711 2716 2720 2723 2724 2728 2734 2740 2741 2744 2747 2751 2757 2763 2771 2778 2785 2790 2795 2803 2810 2815 2820 2823 2824
2707 2699 2691 2683 2675 2667 2661 2655 2649 2645 2644 2647 2652 2658 2667 2674 2682 2690 2696 2701 2707 2711 2713 2717 2722 2726 2729 2733 2737 2742 2748 2755 2763 2769 2775 2780 2786 2793 2798 2803 2808 2812 2814
2703 2694 2686 2679 2673 2666 2659 2653 2648 2644 2642 2644 2647 2654 2660 2666 2673 2680 2685 2693 2697 2700 2702 2706 2709 2715 2720 2725 2729 2734 2740 2747 2753 2759 2765 2772 2778 2784 2791 2794 2797 2799 2803
2698 2692 2684 2678 2672 2665 2660 2654 2650 2647 2646 2646 2648 2651 2656 2661 2666 2672 2678 2684 2687 2689 2692 2696 2700 2706 2713 2717 2721 2725 2731 2738 2746 2751 2758 2764 2770 2775 2780 2783 2787 2790 2793
2698 2690 2683 2677 2672 2666 2661 2656 2652 2650 2649 2648 2649 2652 2654 2658 2662 2667 2671 2675 2679 2681 2684 2689 2694 2700 2706 2709 2713 2717 2722 2730 2738 2744 2751 2756 2762 2768 2771 2775 2779 2782 2784
2701 2693 2685 2679 2673 2668 2663 2659 2655 2653 2651 2650 2651 2652 2653 2656 2659 2663 2667 2670 2673 2675 2678 2684 2691 2696 2699 2701 2705 2710 2717 2724 2733 2739 2744 2750 2755 2759 2762 2766 2770 2772 2774
2708 2698 2689 2682 2676 2670 2666 2662 2658 2656 2654 2652 2652 2652 2654 2656 2659 2661 2663 2666 2669 2672 2676 2681 2687 2691 2694 2696 2701 2707 2712 2719 2727 2733 2738 2744 2748 2752 2755 2758 2761 2763 2764
2714 2705 2697 2689 2681 2674 2669 2665 2661 2659 2657 2656 2655 2655 2655 2656 2658 2659 2661 2664 2667 2670 2675 2679 2684 2687 2691 2695 2701 2707 2712 2718 2724 2730 2734 2738 2742 2745 2747 2751 2753 2753 2752
2720 2712 2704 2697 2690 2683 2676 2670 2665 2662 2661 2659 2658 2657 2657 2659 2660 2661 2662 2665 2668 2671 2675 2679 2682 2686 2691 2696 2701 2706 2711 2716 2721 2726 2729 2733 2736 2739 2742 2742 2742 2741 2740